Simultaneous Nadir Overpasses (SNOs) Predictions

Prediction of SNOs between GOES-16 and METOP-B Satellite Orbit:

Table of predicted SNOs for the next 14.0 days since TLE Epoch: 3/30/2024
Index Date Time (GOES-16) GOES-16 Lat,Lon METOP-B Lat,Lon Distance(km) Time Diff (sec)
1 04/01/2024 02:22:04 -0.04, -75.21 0.03, -74.78 48.51 80
2 04/02/2024 14:40:56 0.03, -75.24 0.95, -79.36 469.82 80
3 04/03/2024 14:22:57 0.03, -75.24 -0.18, -74.37 99.28 80
4 04/05/2024 02:41:56 -0.03, -75.23 -0.87, -78.97 426.60 80
5 04/06/2024 02:18:37 -0.03, -75.24 0.26, -73.99 143.02 80
6 04/07/2024 14:37:28 0.03, -75.28 0.76, -78.56 373.69 80
7 04/08/2024 14:19:28 0.03, -75.29 -0.38, -73.57 196.50 80
8 04/10/2024 02:38:28 -0.03, -75.29 -0.65, -78.17 327.93 80
9 04/11/2024 02:15:07 -0.02, -75.31 0.43, -73.18 242.38 80
10 04/12/2024 14:33:58 0.02, -75.35 0.57, -77.75 273.65 80
